Lapse_Rate
6.0 6.1 6.4 6.6 6.8 6.9 6.6 6.6 6.3 6.2 6.4 6.6 6.6 6.7 6.8 7.0 7.1 7.0 6.8 6.5 6.4 6.2 6.1 5.8 5.1 5.2 5.3 5.6 5.6 5.8 6.0 6.2 6.1 6.0 6.2 6.5 6.5 6.8 6.8 6.8 6.8 6.7 6.5 6.5 6.5 6.6 6.6 6.6 6.6
6.0 6.2 6.3 6.5 7.0 6.7 6.7 6.8 6.4 6.4 6.7 6.6 6.6 6.8 6.8 7.0 7.1 7.1 6.8 6.7 6.5 6.4 6.2 5.9 5.4 5.3 5.6 5.8 5.8 5.8 5.9 5.9 5.8 5.9 6.2 6.5 6.7 6.9 6.9 6.9 6.9 6.7 6.5 6.6 6.5 6.5 6.4 6.4 6.5
6.2 6.2 6.4 6.7 7.0 6.7 7.0 6.9 6.6 6.6 6.9 6.9 6.8 6.9 7.0 7.2 7.3 7.2 6.8 6.6 6.5 6.5 6.2 6.0 5.7 5.6 5.6 5.8 6.0 5.9 6.0 6.3 6.3 6.3 6.6 6.6 6.8 6.9 7.0 6.9 6.7 6.6 6.5 6.5 6.4 6.4 6.5 6.6 6.6
6.2 6.3 6.6 6.9 6.9 6.9 7.1 6.9 6.8 6.8 7.0 7.0 7.1 7.1 7.3 7.4 7.4 7.2 6.9 6.6 6.6 6.5 6.2 6.2 6.2 6.0 6.0 5.9 6.2 6.4 6.5 6.4 6.4 6.5 6.8 6.8 7.0 7.0 7.0 6.9 6.8 6.7 6.7 6.7 6.6 6.6 6.7 6.8 6.8
6.2 6.5 6.6 7.1 7.0 7.0 6.9 6.8 6.7 6.7 7.0 7.1 7.3 7.3 7.5 7.5 7.5 7.3 7.0 6.7 6.6 6.6 6.4 6.1 6.1 6.0 6.0 6.1 6.2 6.3 6.5 6.6 6.6 6.7 6.8 6.9 6.8 6.8 6.9 6.9 6.9 7.0 6.9 6.9 6.9 6.9 7.0 7.0 6.9
6.4 6.5 6.7 7.0 6.9 6.9 6.8 6.6 6.6 6.6 6.8 7.2 7.2 7.3 7.4 7.5 7.5 7.5 7.2 7.0 6.8 6.6 6.5 6.4 6.3 6.2 6.2 6.1 6.2 6.3 6.3 6.4 6.5 6.7 6.7 6.8 6.9 6.9 6.9 7.0 6.9 7.0 7.0 6.9 6.8 6.9 7.0 7.0 6.9
6.5 6.6 7.0 7.1 6.9 6.8 6.9 6.7 6.7 6.7 6.6 7.0 7.1 7.3 7.2 7.4 7.5 7.5 7.4 7.3 7.1 7.0 6.9 6.6 6.5 6.5 6.5 6.6 6.6 6.4 6.4 6.4 6.5 6.7 6.7 6.8 6.8 6.9 6.9 7.0 7.0 7.0 6.9 6.8 6.8 6.7 6.8 6.8 6.8
6.6 6.7 6.9 7.1 7.0 6.8 6.8 6.8 6.8 6.8 6.6 7.0 7.1 7.2 7.2 7.2 7.4 7.5 7.5 7.4 7.2 7.2 7.1 7.0 6.7 6.7 6.6 6.5 6.6 6.6 6.5 6.6 6.6 6.8 6.8 7.0 7.0 7.1 7.2 7.1 7.0 7.0 7.1 7.0 7.0 6.8 6.8 6.8 6.8
6.6 6.8 6.9 7.1 7.0 6.9 6.8 6.9 6.8 6.9 6.8 6.9 7.1 7.1 7.3 7.3 7.3 7.5 7.5 7.5 7.4 7.4 7.3 7.2 7.0 6.8 6.7 6.7 6.7 6.7 6.7 6.7 6.8 6.9 6.9 7.0 7.0 7.0 7.0 6.9 6.9 7.0 6.9 7.0 6.9 6.8 6.7 6.6 6.5
6.7 6.8 6.9 7.0 7.0 6.9 6.8 6.9 6.8 7.0 7.0 7.1 7.1 7.2 7.4 7.3 7.3 7.3 7.3 7.4 7.4 7.4 7.3 7.3 7.2 7.1 6.9 6.8 6.8 6.8 6.8 6.9 6.9 6.8 6.9 6.9 6.9 6.9 6.9 6.8 6.8 6.7 6.7 6.8 6.8 6.6 6.6 6.5 6.5
6.7 6.8 6.9 6.9 7.0 6.9 6.8 6.9 6.8 6.9 7.2 6.9 7.1 7.2 7.3 7.4 7.3 7.3 7.3 7.3 7.4 7.3 7.4 7.3 7.2 7.1 7.1 7.0 7.0 6.9 7.0 7.0 7.0 6.9 6.9 7.0 7.0 7.0 6.9 6.8 6.7 6.6 6.5 6.6 6.5 6.5 6.3 6.2 6.2
6.7 6.8 6.8 6.9 6.8 6.8 6.8 6.9 6.9 7.0 6.9 7.1 7.1 7.3 7.3 7.3 7.3 7.3 7.2 7.2 7.2 7.2 7.2 7.2 7.1 7.1 7.1 7.1 7.0 7.0 7.0 6.9 6.8 6.8 6.8 6.8 6.8 6.7 6.7 6.6 6.5 6.4 6.4 6.5 6.5 6.5 6.4 6.3 6.2
6.7 6.9 6.9 6.8 6.8 6.8 6.9 6.9 6.9 7.1 7.2 7.2 7.2 7.2 7.3 7.3 7.3 7.3 7.3 7.3 7.3 7.2 7.1 7.1 7.1 6.9 6.9 6.9 6.9 6.9 6.8 6.8 6.9 6.8 6.8 6.7 6.8 6.7 6.6 6.6 6.6 6.5 6.4 6.4 6.4 6.4 6.3 6.3 6.3
6.8 6.9 6.9 6.8 6.8 6.8 6.8 7.0 7.1 7.4 7.5 7.5 7.3 7.3 7.3 7.2 7.2 7.3 7.3 7.2 7.2 7.0 7.0 7.0 7.0 7.0 7.0 6.9 6.9 6.9 6.8 6.8 6.8 6.8 6.7 6.7 6.7 6.6 6.5 6.4 6.4 6.4 6.3 6.2 6.3 6.3 6.3 6.2 6.2
6.8 6.8 6.8 6.8 6.8 6.8 6.9 7.1 7.4 7.3 7.5 7.5 7.5 7.4 7.3 7.3 7.4 7.3 7.2 7.2 7.1 7.0 6.9 7.0 6.9 7.0 7.0 6.9 6.9 6.8 6.8 6.8 6.7 6.7 6.7 6.6 6.6 6.5 6.5 6.4 6.3 6.2 6.3 6.4 6.3 6.3 6.2 6.2 6.1
6.5 6.6 6.6 6.8 6.9 6.9 6.9 7.4 7.4 7.5 7.5 7.6 7.6 7.5 7.5 7.3 7.3 7.2 7.3 7.3 7.2 7.2 7.2 6.9 6.9 7.0 7.0 6.9 6.9 6.9 6.9 6.9 6.9 6.8 6.8 6.7 6.6 6.5 6.4 6.4 6.2 6.2 6.2 6.3 6.4 6.4 6.3 6.3 6.2
6.5 6.6 6.6 6.8 6.9 6.9 6.9 7.4 7.4 7.4 7.4 7.5 7.7 7.7 7.7 7.6 7.5 7.3 7.2 7.3 7.3 7.2 7.2 7.2 7.2 7.1 7.0 7.0 6.9 7.0 7.1 7.1 7.0 7.0 6.9 6.8 6.6 6.5 6.3 6.2 6.2 6.2 6.1 6.1 6.0 6.1 6.2 6.1 5.8
6.6 6.5 7.0 6.9 7.1 7.0 6.9 7.2 7.4 7.3 7.4 7.4 7.7 7.7 7.8 7.8 7.6 7.3 7.4 7.4 7.5 7.5 7.4 7.4 7.4 7.4 7.4 7.3 7.2 7.3 7.3 7.2 7.1 7.0 6.9 6.7 6.6 6.6 6.3 6.2 6.1 6.0 6.0 5.9 5.7 5.8 5.9 6.0 5.6
6.8 6.8 7.0 6.9 6.8 6.8 6.8 7.1 7.2 7.3 7.6 7.7 7.6 7.5 7.7 8.0 7.8 7.6 7.7 7.7 7.8 7.7 7.8 7.8 7.6 7.5 7.3 7.3 7.2 7.2 7.2 7.1 7.0 6.9 6.8 6.7 6.5 6.5 6.4 6.2 6.1 6.0 5.9 5.8 5.8 5.8 5.4 5.6 5.4
6.6 6.5 6.5 6.6 6.5 6.6 6.6 7.1 7.4 7.4 7.6 7.6 7.7 7.6 7.7 7.9 8.0 7.8 8.0 8.1 7.9 7.9 7.9 7.9 7.8 7.7 7.4 7.3 7.3 7.3 7.2 7.2 7.0 6.9 6.8 6.6 6.5 6.4 6.4 6.3 6.2 6.0 6.0 5.9 5.8 5.6 5.4 5.7 5.3
6.4 6.4 6.5 6.4 6.3 6.3 6.5 7.0 7.5 7.7 7.8 7.7 7.7 7.8 7.8 7.8 7.8 8.1 8.0 8.1 8.1 8.0 7.9 7.8 7.7 7.6 7.5 7.4 7.4 7.4 7.2 7.2 7.0 6.8 6.6 6.4 6.4 6.3 6.3 6.3 6.4 6.4 6.1 6.1 6.1 6.0 5.7 5.6 5.4
6.5 6.5 6.4 6.2 6.1 6.0 6.2 6.0 7.2 7.5 7.8 7.5 7.5 7.7 7.9 7.9 7.8 7.8 7.9 7.9 8.0 8.1 8.1 8.0 7.8 7.7 7.6 7.6 7.7 7.5 7.3 7.2 7.0 6.8 6.6 6.5 6.5 6.5 6.5 6.5 6.5 6.5 6.4 6.3 6.3 6.1 6.1 5.8 6.0
6.3 6.4 6.3 6.0 5.9 5.7 5.8 5.9 6.6 7.3 7.6 7.5 7.5 7.5 7.6 7.7 7.7 7.7 7.8 7.9 8.0 8.1 8.0 8.0 7.9 7.7 7.5 7.5 7.4 7.3 7.4 7.1 7.0 6.9 6.9 6.9 6.8 6.6 6.6 6.5 6.3 6.3 6.3 6.2 6.1 6.1 6.0 6.0 6.1
6.3 6.2 6.0 5.9 5.8 4.9 5.7 6.0 6.5 7.0 7.3 7.2 7.2 7.3 7.1 7.2 7.3 7.3 7.5 7.6 7.6 7.6 7.5 7.5 7.5 7.4 7.2 7.1 7.1 7.0 7.0 6.9 6.9 6.9 6.9 6.9 6.8 6.7 6.5 6.4 6.3 6.2 6.2 6.3 6.3 6.4 6.4 6.5 6.5
6.0 6.1 5.8 5.1 4.1 3.7 5.5 5.3 6.9 6.6 6.9 7.0 7.0 6.8 6.9 6.9 7.0 7.1 7.2 7.3 7.3 7.3 7.3 7.4 7.5 7.5 7.4 7.2 7.0 6.9 6.9 6.9 6.8 6.8 6.8 6.8 6.8 6.8 6.6 6.5 6.5 6.6 6.6 6.6 6.5 6.5 6.6 6.7 6.7
6.1 6.3 6.6 4.5 3.4 4.3 5.1 5.3 6.2 6.6 6.7 6.9 6.7 6.8 6.9 6.9 6.9 6.8 6.9 6.9 7.2 7.3 7.4 7.4 7.3 7.3 7.4 7.3 7.1 6.9 6.9 6.8 6.7 6.7 6.7 6.6 6.5 6.4 6.4 6.5 6.4 6.4 6.5 6.6 6.6 6.6 6.7 6.7 6.7
6.1 6.1 6.5 6.3 4.9 4.7 5.7 5.9 6.5 6.3 6.5 6.6 6.6 6.5 6.6 6.7 6.7 6.9 7.0 7.0 7.1 7.2 7.0 7.1 7.1 7.1 7.2 7.2 7.2 7.1 7.0 6.9 6.8 6.6 6.5 6.5 6.5 6.6 6.6 6.5 6.5 6.5 6.6 6.7 6.8 6.9 6.9 6.9 6.8
6.3 6.4 6.1 6.0 3.1 3.4 4.5 5.3 6.5 6.4 6.4 6.3 6.3 6.3 6.5 6.5 6.6 6.8 6.8 6.9 6.9 7.0 7.0 6.9 6.9 6.8 6.8 6.6 6.6 6.5 6.3 6.4 6.5 6.6 6.6 6.6 6.6 6.7 6.9 6.9 6.9 6.9 7.0 7.1 7.1 7.1 7.2 7.1 7.1
5.9 6.0 6.2 6.2 6.0 3.2 2.6 5.5 6.2 6.0 6.1 6.4 6.5 6.2 6.2 6.0 6.0 6.2 6.3 6.3 6.2 6.2 6.3 6.2 6.2 6.3 6.2 6.2 6.3 6.4 6.4 6.5 6.6 6.8 6.8 6.9 7.1 7.1 7.1 7.1 7.1 7.3 7.3 7.4 7.3 7.4 7.4 7.3 7.1
6.2 6.4 6.5 6.4 5.1 6.0 5.8 6.2 6.2 6.0 6.1 6.1 6.3 6.3 6.2 6.2 6.4 6.4 6.1 6.0 6.1 6.1 5.9 5.9 5.9 6.0 6.1 6.2 6.4 6.6 6.6 6.6 6.6 6.7 7.0 7.2 7.2 7.3 7.4 7.5 7.6 7.6 7.5 7.6 7.6 7.7 7.5 7.3 7.2
Wind_Speed
5 4 3 4 4 5 1 3 0 3 2 1 3 4 5 2 4 3 1 5 11 11 14 13 14 14 12 11 13 13 13 13 14 14 19 19 18 17 18 17 16 18 16 15 16 20 19 19 20
3 1 5 3 5 3 4 3 5 5 4 7 4 3 4 1 2 4 7 5 15 14 15 14 18 15 14 14 13 13 11 12 13 15 18 18 17 16 16 16 15 17 16 17 16 19 18 18 18
1 4 3 4 3 4 4 5 6 2 7 1 3 3 4 3 2 8 3 10 14 12 15 15 17 16 14 13 13 12 11 12 13 14 17 18 16 15 15 15 14 15 15 15 15 18 17 17 18
1 4 4 4 3 2 3 3 4 5 2 2 3 5 1 1 7 6 10 15 11 11 15 17 17 16 15 13 14 13 13 13 12 13 16 16 15 15 15 14 13 12 13 12 14 15 16 17 18
4 3 4 3 2 2 3 1 6 2 1 2 2 3 2 2 3 9 12 11 10 8 14 17 17 16 17 15 14 14 14 14 13 13 16 16 14 13 14 14 12 13 13 11 14 15 16 16 13
4 3 4 2 2 4 1 4 5 3 1 2 4 5 4 2 6 7 10 10 13 10 14 15 17 17 16 15 14 13 13 14 12 13 15 13 12 13 13 14 13 13 12 13 13 15 14 15 14
5 4 4 4 3 2 3 6 3 6 2 3 7 5 2 1 4 7 8 7 10 12 13 15 17 17 17 16 15 14 12 13 12 11 12 12 13 12 12 12 13 13 12 13 14 14 14 16 14
5 4 4 2 4 4 4 5 1 5 5 3 2 4 3 5 8 6 6 7 7 7 10 12 15 17 17 16 16 15 13 13 12 12 14 14 13 12 12 12 11 12 11 12 13 14 14 15 15
3 4 2 7 6 3 4 4 1 1 5 2 4 4 1 7 10 7 5 4 4 4 5 11 13 14 16 16 16 15 15 13 13 13 14 15 13 12 12 11 10 13 11 12 13 13 13 14 14
4 4 8 5 5 4 6 3 7 4 3 2 3 2 3 8 13 13 11 12 11 12 8 8 12 13 15 13 15 15 15 15 14 14 15 14 13 13 12 12 11 13 12 12 12 11 12 13 12
3 4 5 3 3 5 7 2 3 6 3 7 9 6 7 6 10 12 11 12 16 13 9 7 11 14 15 13 11 13 15 15 14 15 14 13 12 11 11 11 11 11 10 10 11 10 10 10 10
4 2 3 3 2 4 6 5 3 6 5 3 8 5 7 11 14 14 13 11 10 9 11 8 11 14 14 13 12 11 10 13 13 15 14 15 12 10 10 10 10 10 9 8 8 8 7 8 8
3 3 2 2 5 4 4 1 5 6 7 4 4 7 11 12 13 10 8 5 7 10 9 9 11 13 15 13 12 11 11 10 13 15 15 16 13 10 11 10 10 10 10 9 7 7 7 7 7
4 4 3 2 3 2 0 1 1 2 4 4 2 7 8 10 13 4 6 9 9 10 11 9 10 13 16 14 15 12 12 12 13 14 17 18 17 14 12 11 11 11 12 11 12 12 10 7 6
5 4 2 1 1 1 1 4 8 3 3 2 5 6 6 9 4 12 15 12 12 8 8 11 11 14 14 15 15 14 13 13 12 13 17 19 18 17 15 12 10 13 14 12 9 6 6 6 6
5 5 3 2 4 1 3 8 2 4 2 6 6 7 8 10 11 9 7 7 7 7 11 10 9 11 11 12 15 15 15 16 15 14 16 19 17 16 12 10 10 13 13 12 9 3 1 1 2
7 3 3 2 3 2 3 6 3 2 4 5 6 8 8 9 10 11 11 9 9 10 8 10 11 12 12 12 13 13 15 15 15 16 16 20 21 19 16 13 12 15 12 10 8 2 4 3 2
5 3 2 3 1 1 0 10 7 7 5 9 9 8 8 9 15 10 11 11 9 8 9 10 9 11 11 8 7 6 6 11 13 15 16 18 20 21 18 13 13 15 10 6 7 4 2 1 3
6 5 3 1 1 2 5 7 12 9 5 10 11 9 9 11 8 8 9 9 9 8 9 12 11 12 9 8 8 8 8 7 6 11 16 17 16 20 20 16 14 14 9 10 9 4 4 3 4
5 4 2 1 2 2 4 10 11 10 8 7 7 9 9 7 7 9 8 7 9 10 12 10 13 12 12 9 8 4 7 7 8 11 13 19 19 18 17 16 12 15 7 9 10 10 4 3 7
3 6 4 3 1 3 5 8 6 4 3 5 5 6 5 8 9 8 7 5 4 8 9 12 13 12 12 13 4 3 3 2 3 3 6 14 18 18 19 19 17 15 13 9 10 11 12 8 6
5 6 5 6 4 3 3 5 6 5 9 5 8 7 7 8 6 6 6 4 3 6 6 8 7 8 8 8 8 10 10 11 9 6 4 5 16 18 17 18 20 17 15 11 10 10 10 8 8
3 4 5 4 4 3 3 2 7 4 5 5 7 8 7 6 6 8 8 6 5 6 2 5 6 7 7 10 9 7 7 4 1 3 5 6 7 16 18 17 16 13 13 12 11 10 12 11 8
9 7 8 5 3 1 3 4 5 3 2 3 3 7 7 8 7 7 6 6 6 6 6 3 2 2 5 7 7 8 8 6 4 3 4 4 3 4 10 13 12 12 12 10 10 11 14 13 13
4 6 2 2 2 5 2 2 8 4 5 3 5 6 6 6 7 7 8 8 8 8 8 6 4 3 2 4 4 5 5 5 7 6 4 4 4 3 6 9 10 7 12 13 13 10 12 12 12
6 6 5 7 4 2 2 5 5 2 6 1 3 3 6 8 6 8 8 7 8 8 8 7 6 5 2 0 3 3 4 4 4 5 4 4 4 5 6 7 12 14 13 11 11 7 9 10 10
5 4 5 7 3 3 3 6 4 5 6 5 7 7 7 7 7 7 8 7 8 7 8 7 7 7 6 4 2 3 4 5 5 6 4 4 5 4 5 8 7 9 12 13 9 8 8 9 10
3 8 3 3 3 3 3 4 5 1 4 4 7 7 6 6 8 8 8 8 7 7 6 8 8 8 6 6 5 4 5 4 5 5 6 6 5 4 6 7 7 7 7 8 11 10 10 10 9
3 3 4 5 4 5 2 5 6 8 6 7 6 3 6 6 6 6 7 7 7 7 8 8 8 9 8 7 6 6 6 5 4 5 6 6 5 6 7 7 7 8 9 8 9 11 13 13 12
1 6 6 5 4 1 3 5 3 8 6 6 5 5 5 6 5 6 7 8 8 9 9 9 8 9 7 7 7 7 6 6 5 5 7 5 6 6 7 6 7 8 9 8 10 11 11 12 13
Wind_Direction
16 26 71 42 59 65 205 249 141 166 166 120 101 126 170 112 158 202 335 173 133 141 150 144 141 128 126 132 120 119 117 117 111 113 108 103 100 96 96 97 101 100 93 97 100 98 92 91 91
21 348 44 67 86 74 268 255 200 198 149 131 92 76 59 99 80 100 121 187 142 143 149 144 148 136 134 127 121 116 119 118 120 108 109 105 101 100 100 102 109 107 98 90 101 100 95 96 98
82 35 78 96 100 168 211 210 187 147 149 114 101 53 139 167 68 162 210 145 137 141 152 151 145 139 133 123 117 118 122 117 115 105 111 107 102 102 101 103 111 109 96 96 98 101 97 101 100
130 21 36 83 187 224 209 192 168 128 213 182 125 74 354 258 153 191 142 140 137 144 153 158 147 137 133 131 135 131 123 119 114 106 110 106 103 105 104 105 111 109 93 98 105 105 102 107 109
39 63 63 86 282 280 248 187 144 121 156 116 115 178 8 94 79 132 138 144 144 143 154 157 152 148 145 143 141 139 133 126 125 112 113 112 111 113 112 111 111 105 91 99 116 110 109 111 107
50 99 68 177 258 318 154 158 139 114 316 149 79 123 181 331 129 156 144 150 152 151 156 157 161 156 152 150 146 143 137 130 131 126 124 121 120 122 122 119 122 115 110 107 112 107 111 109 96
125 86 161 159 170 332 173 155 155 154 154 246 164 127 278 249 174 152 145 136 143 153 154 159 164 164 159 158 152 145 140 134 131 126 122 118 123 129 125 124 128 122 117 117 106 107 100 94 93
109 93 109 174 181 237 170 171 170 155 206 104 180 175 188 208 145 120 122 133 140 152 159 159 163 167 164 161 157 150 147 139 139 127 127 127 126 124 122 122 132 126 121 116 115 112 110 107 106
134 65 160 186 150 222 147 159 163 324 123 224 181 157 152 138 123 118 112 106 140 161 165 161 160 166 164 164 162 158 152 149 149 143 141 137 134 135 135 133 137 129 132 128 117 114 110 105 102
85 109 207 185 187 189 174 177 172 149 143 233 288 154 108 139 151 160 168 182 185 188 185 174 165 166 162 161 165 166 160 162 159 156 154 147 147 147 143 142 136 134 138 129 127 122 120 115 110
129 170 186 188 173 160 151 158 170 133 237 211 201 184 155 154 167 175 182 185 190 191 188 178 175 170 169 169 167 166 169 166 168 167 162 155 152 147 145 141 140 137 139 130 130 127 126 127 127
107 83 160 156 130 126 147 122 202 191 224 334 230 164 161 171 182 188 193 185 179 180 186 181 176 178 180 179 178 172 171 173 175 179 170 161 155 154 157 155 155 155 150 139 142 136 138 136 136
106 137 79 62 56 66 119 167 233 251 256 9 95 158 183 187 198 199 196 193 176 186 187 185 174 183 185 182 183 181 186 182 187 185 183 175 166 170 168 168 173 175 170 161 152 153 152 153 154
134 95 103 46 75 55 136 279 33 286 308 180 149 207 202 202 201 179 190 195 195 195 190 182 186 182 185 189 191 189 189 188 189 191 190 188 183 176 175 179 188 189 187 188 178 176 178 179 173
104 85 26 91 107 40 123 281 236 250 348 238 235 255 242 242 226 213 210 213 200 196 183 187 186 183 185 193 194 196 197 191 188 194 196 192 193 186 183 185 194 200 193 192 203 196 185 174 185
76 59 118 299 135 5 99 272 290 18 206 242 255 258 240 242 229 243 242 226 200 184 189 186 187 187 189 191 191 196 200 204 203 196 194 194 193 192 185 187 203 196 188 186 181 171 96 215 213
11 171 183 311 205 114 145 266 284 148 36 297 280 255 250 258 247 236 228 223 208 199 184 192 188 192 193 192 191 193 194 201 205 206 197 193 194 192 187 196 202 187 183 187 174 167 163 183 211
177 154 222 208 179 74 97 269 283 278 292 275 273 263 256 253 248 239 224 220 214 200 197 195 195 198 194 187 182 184 181 202 198 201 201 197 194 192 195 198 193 180 179 187 187 172 146 175 164
128 120 159 201 96 176 234 266 281 281 255 268 273 270 258 254 285 252 237 217 203 202 198 195 189 195 183 189 197 210 214 212 206 200 197 204 206 198 196 199 197 192 189 196 193 152 184 158 147
121 124 172 52 58 130 357 281 263 271 255 241 261 279 278 279 288 282 262 218 210 214 211 203 206 190 194 199 204 197 202 220 220 209 204 205 201 200 201 204 199 199 200 197 184 185 163 162 179
123 152 180 146 74 60 344 300 322 308 291 307 291 267 289 285 300 308 308 264 230 222 209 207 208 201 199 203 130 102 82 90 142 190 206 211 208 203 200 207 207 197 200 205 199 197 198 204 193
171 190 141 127 91 220 22 280 307 317 308 330 340 3 10 14 18 11 5 12 311 254 222 218 199 193 198 183 187 200 216 224 227 218 213 199 209 220 218 212 211 202 201 209 205 199 204 199 202
176 113 113 88 95 77 322 79 272 342 331 359 22 19 16 10 16 13 18 29 15 8 308 230 200 185 172 182 191 197 210 221 166 176 194 207 205 217 222 220 215 206 207 214 202 196 203 207 205
150 77 49 58 85 348 259 150 282 228 190 306 353 351 356 0 6 17 17 28 28 27 38 38 157 157 166 177 181 187 202 203 186 202 226 222 218 221 232 234 233 219 213 211 205 203 206 210 217
84 91 21 359 16 218 351 95 245 254 260 251 329 356 0 4 20 30 33 32 29 33 34 48 83 105 163 184 195 206 223 203 216 214 213 206 227 228 234 225 237 234 229 221 214 207 213 213 218
187 160 157 193 189 230 72 231 249 189 322 327 65 59 32 31 32 40 34 43 31 32 42 45 52 53 45 272 253 254 242 236 232 223 218 224 218 223 220 221 232 239 236 223 218 214 218 218 224
184 190 157 106 23 58 218 284 316 21 43 66 64 68 55 44 38 38 32 26 43 30 38 43 47 48 43 20 345 297 287 277 271 265 243 244 241 237 236 235 235 238 239 240 231 228 220 219 220
159 162 85 8 130 229 284 278 227 136 108 55 68 78 75 55 42 35 32 20 26 25 18 29 31 30 15 18 13 350 325 305 293 289 274 264 268 249 247 243 236 243 235 231 237 243 236 222 220
132 180 59 114 137 163 166 254 219 151 163 119 95 107 108 88 55 45 35 26 32 36 33 31 28 27 18 9 355 357 348 332 320 298 285 270 264 249 241 241 237 237 236 227 230 240 244 243 241
178 178 150 136 215 243 141 261 205 170 164 123 83 87 75 90 68 56 47 38 30 26 26 27 22 25 14 357 3 6 2 358 349 321 295 290 276 268 257 249 241 240 236 229 225 237 239 242 243